Location: Bathsheba
(13.2167°N, 59.5167°W)
Time: 23:25:53
(UTC+00:00)

Delta 7925 Rocket - Pass Details

Date: 18 September 2020
Orbit: 645 x 1648 km, 26.3° (Epoch: 20 October)

Event Time Altitude Azimuth Distance (km) Brightness Sun altitude
Rises 23:15:34 0° 283° (WNW) 2,992 8.2 -20.0°
Reaches altitude 10° 23:17:54 10° 275° (W) 2,138 7.0 -20.6°
Maximum altitude 23:22:33 41° 205° (SSW) 1,112 4.4 -21.7°
Enters shadow 23:25:01 27° 155° (SSE) 1,546 4.8 -22.3°
